PLK3220 UNNT-UHWW

Flight info

Callsign PLK3220
Flight time 5h 14m
Altitude 29000
Route OGATI1K OGATI A308 RISPA A366 KESED B151 RO/K0813F310 B151 LURIN A824 ARMOT/K0830F330 A824 NUKSI G363 GU N992 HAB/K0837F340 B355 BG G714 DAGES DAGES2N
Aircraft A321/M-SDE3FGHIRWY/LB1

Departure

Time 2026-04-12 04:04
Airport Novosibirsk Tolmachevo Airport (UNNT)

Arrival

Time 2026-04-12 09:18
Airport Vladivostok International Airport (UHWW)
Time Latitude Longitude Altitude Speed Heading
2026-04-12 03:38 55.01146 82.66744 373 ft 0 kts 171°
2026-04-12 03:59 55.01133 82.66748 373 ft 5 kts 171°
2026-04-12 03:59 55.01109 82.66764 373 ft 4 kts 141°
2026-04-12 04:00 55.01096 82.66833 373 ft 6 kts 107°
2026-04-12 04:00 55.01085 82.66893 373 ft 6 kts 108°
2026-04-12 04:00 55.01084 82.67006 373 ft 13 kts 81°
2026-04-12 04:00 55.01099 82.67178 373 ft 14 kts 82°
2026-04-12 04:01 55.01107 82.67330 373 ft 12 kts 87°
2026-04-12 04:01 55.01122 82.67453 373 ft 9 kts 56°
2026-04-12 04:01 55.01168 82.67511 373 ft 8 kts 31°
2026-04-12 04:01 55.01211 82.67555 373 ft 7 kts 31°
2026-04-12 04:02 55.01255 82.67600 373 ft 8 kts 31°
2026-04-12 04:02 55.01388 82.67737 372 ft 14 kts 31°
2026-04-12 04:02 55.01469 82.67752 371 ft 11 kts 323°
2026-04-12 04:03 55.01482 82.67682 371 ft 0 kts 262°
2026-04-12 04:03 55.01475 82.67600 371 ft 33 kts 261°
2026-04-12 04:03 55.01397 82.66771 375 ft 102 kts 261°
2026-04-12 04:04 55.01256 82.65223 374 ft 154 kts 260°
2026-04-12 04:04 55.01070 82.63196 628 ft 176 kts 259°
2026-04-12 04:04 55.00910 82.61185 1546 ft 161 kts 260°
2026-04-12 04:04 55.00776 82.59345 2211 ft 150 kts 258°
2026-04-12 04:05 55.00572 82.57474 2467 ft 161 kts 255°
2026-04-12 04:05 55.00360 82.55549 2844 ft 162 kts 258°
2026-04-12 04:05 55.00244 82.53569 3083 ft 173 kts 274°
2026-04-12 04:05 55.00815 82.51605 3232 ft 199 kts 310°
2026-04-12 04:06 55.02154 82.50617 3387 ft 227 kts 349°
2026-04-12 04:06 55.03788 82.50601 3585 ft 242 kts 355°
2026-04-12 04:06 55.05489 82.50709 4118 ft 244 kts 356°
2026-04-12 04:06 55.07194 82.50852 4745 ft 245 kts 356°
2026-04-12 04:07 55.08896 82.50988 5339 ft 245 kts 355°
2026-04-12 04:07 55.10597 82.51399 5918 ft 254 kts 14°
2026-04-12 04:07 55.12108 82.53099 6463 ft 267 kts 44°
2026-04-12 04:07 55.13034 82.55947 6965 ft 277 kts 75°
2026-04-12 04:08 55.13400 82.59233 7469 ft 281 kts 79°
2026-04-12 04:08 55.13738 82.62610 8012 ft 283 kts 81°
2026-04-12 04:08 55.13671 82.66032 8492 ft 284 kts 110°
2026-04-12 04:08 55.12771 82.68800 9337 ft 255 kts 135°
2026-04-12 04:09 55.11378 82.70688 9453 ft 254 kts 165°
2026-04-12 04:09 55.09669 82.71402 9603 ft 256 kts 180°
2026-04-12 04:09 55.07880 82.71841 9910 ft 262 kts 180°
2026-04-12 04:09 55.06059 82.72307 10269 ft 266 kts 179°
2026-04-12 04:10 55.04216 82.72790 10635 ft 270 kts 179°
2026-04-12 04:10 55.02353 82.73819 10767 ft 295 kts 153°
2026-04-12 04:10 55.00853 82.76326 11089 ft 308 kts 122°
2026-04-12 04:10 55.00147 82.79840 11275 ft 320 kts 96°
2026-04-12 04:11 54.99861 82.83774 11417 ft 336 kts 95°
2026-04-12 04:11 54.99587 82.87967 11553 ft 353 kts 95°
2026-04-12 04:11 54.99312 82.92251 11682 ft 368 kts 95°
2026-04-12 04:11 54.99012 82.96775 11808 ft 384 kts 95°
2026-04-12 04:12 54.98689 83.01481 12003 ft 396 kts 95°
2026-04-12 04:12 54.98350 83.06270 12421 ft 401 kts 95°
2026-04-12 04:12 54.98001 83.11105 12897 ft 404 kts 95°
2026-04-12 04:12 54.97648 83.15976 13356 ft 407 kts 95°
2026-04-12 04:13 54.97293 83.20865 13817 ft 409 kts 95°
2026-04-12 04:13 54.96932 83.25795 14288 ft 412 kts 95°
2026-04-12 04:13 54.96568 83.30766 14737 ft 415 kts 95°
2026-04-12 04:13 54.96198 83.35762 15176 ft 417 kts 95°
2026-04-12 04:14 54.95822 83.40774 15604 ft 420 kts 95°
2026-04-12 04:14 54.95442 83.45827 16016 ft 422 kts 95°
2026-04-12 04:14 54.95059 83.50901 16433 ft 424 kts 95°
2026-04-12 04:14 54.94672 83.56007 16817 ft 427 kts 95°
2026-04-12 04:15 54.94281 83.61145 17209 ft 429 kts 95°
2026-04-12 04:15 54.93887 83.66315 17599 ft 432 kts 95°
2026-04-12 04:15 54.93495 83.71439 17950 ft 434 kts 95°
2026-04-12 04:15 54.93088 83.76720 18321 ft 436 kts 95°
2026-04-12 04:16 54.92687 83.81898 18669 ft 439 kts 95°
2026-04-12 04:16 54.92274 83.87172 19020 ft 441 kts 95°
2026-04-12 04:16 54.91854 83.92475 19364 ft 443 kts 95°
2026-04-12 04:16 54.91430 83.97791 19709 ft 446 kts 95°
2026-04-12 04:17 54.91003 84.03141 20045 ft 448 kts 95°
2026-04-12 04:17 54.90577 84.08518 20353 ft 450 kts 95°
2026-04-12 04:17 54.90144 84.13930 20666 ft 453 kts 95°
2026-04-12 04:17 54.89708 84.19367 20984 ft 455 kts 95°
2026-04-12 04:18 54.89267 84.24824 21295 ft 458 kts 95°
2026-04-12 04:18 54.88820 84.30320 21605 ft 460 kts 95°
2026-04-12 04:18 54.88368 84.35825 21904 ft 462 kts 95°
2026-04-12 04:18 54.87909 84.41372 22190 ft 465 kts 95°
2026-04-12 04:19 54.87444 84.46940 22496 ft 467 kts 95°
2026-04-12 04:19 54.86972 84.52528 22794 ft 469 kts 95°
2026-04-12 04:19 54.86494 84.58143 23069 ft 471 kts 95°
2026-04-12 04:19 54.86012 84.63782 23354 ft 473 kts 95°
2026-04-12 04:20 54.85550 84.69439 23621 ft 475 kts 94°
2026-04-12 04:20 54.85182 84.75136 23895 ft 475 kts 91°
2026-04-12 04:20 54.84891 84.80856 24141 ft 477 kts 90°
2026-04-12 04:20 54.84637 84.86606 24400 ft 479 kts 90°
2026-04-12 04:21 54.84389 84.92311 24640 ft 481 kts 90°
2026-04-12 04:21 54.84121 84.98111 24899 ft 483 kts 91°
2026-04-12 04:21 54.83831 85.03920 25147 ft 485 kts 91°
2026-04-12 04:21 54.83517 85.09754 25396 ft 486 kts 91°
2026-04-12 04:22 54.83271 85.15604 25636 ft 485 kts 85°
2026-04-12 04:22 54.83476 85.21404 25883 ft 479 kts 76°
2026-04-12 04:22 54.84196 85.26998 26099 ft 473 kts 65°
2026-04-12 04:22 54.85407 85.32251 26314 ft 465 kts 56°
2026-04-12 04:23 54.87045 85.37042 26547 ft 457 kts 46°
2026-04-12 04:23 54.89019 85.41302 26749 ft 450 kts 38°
2026-04-12 04:23 54.91192 85.45210 26969 ft 450 kts 38°
2026-04-12 04:23 54.93369 85.49131 27182 ft 451 kts 38°
2026-04-12 04:24 54.95550 85.53074 27393 ft 453 kts 38°
2026-04-12 04:24 54.97733 85.57029 27624 ft 453 kts 38°
2026-04-12 04:24 54.99921 85.60997 27840 ft 455 kts 38°
2026-04-12 04:24 55.02111 85.64974 28049 ft 456 kts 38°
2026-04-12 04:25 55.04304 85.68967 28332 ft 455 kts 38°
2026-04-12 04:25 55.06486 85.72952 28630 ft 454 kts 38°
2026-04-12 04:25 55.08663 85.76931 28923 ft 452 kts 38°
2026-04-12 04:25 55.10837 85.80903 29120 ft 452 kts 38°
2026-04-12 04:26 55.12990 85.84850 29163 ft 445 kts 38°
2026-04-12 04:26 55.17212 85.92612 29165 ft 441 kts 37°
2026-04-12 04:27 55.21446 86.00402 29166 ft 441 kts 38°
2026-04-12 04:27 55.25319 86.08870 29165 ft 456 kts 52°
2026-04-12 04:27 55.26697 86.13938 29164 ft 467 kts 62°
2026-04-12 04:28 55.27599 86.19462 29164 ft 477 kts 72°
2026-04-12 04:28 55.28444 86.31120 29159 ft 482 kts 76°
2026-04-12 04:29 55.29100 86.40823 29152 ft 481 kts 76°
2026-04-12 04:29 55.29884 86.52482 29155 ft 481 kts 76°
2026-04-12 04:30 55.30650 86.64162 29156 ft 482 kts 76°
2026-04-12 04:30 55.31398 86.75868 29161 ft 482 kts 76°
2026-04-12 04:31 55.32137 86.87541 29162 ft 481 kts 76°
2026-04-12 04:31 55.32868 86.99228 29171 ft 481 kts 76°
2026-04-12 04:32 55.33580 87.10912 29174 ft 482 kts 76°
2026-04-12 04:32 55.34280 87.22562 29181 ft 481 kts 76°
2026-04-12 04:33 55.34977 87.34255 29171 ft 481 kts 76°
2026-04-12 04:33 55.35665 87.45945 29162 ft 481 kts 76°
2026-04-12 04:34 55.36338 87.57640 29154 ft 481 kts 77°
2026-04-12 04:34 55.37006 87.69349 29153 ft 481 kts 76°
2026-04-12 04:35 55.37666 87.81058 29145 ft 481 kts 76°
2026-04-12 04:35 55.38311 87.92781 29141 ft 482 kts 76°
2026-04-12 04:36 55.38947 88.04508 29141 ft 482 kts 76°
2026-04-12 04:36 55.39570 88.16256 29172 ft 482 kts 76°
2026-04-12 04:37 55.40178 88.28018 29186 ft 482 kts 77°
2026-04-12 04:37 55.40778 88.39770 29193 ft 482 kts 77°
2026-04-12 04:38 55.41362 88.51447 29190 ft 482 kts 77°
2026-04-12 04:38 55.41941 88.63190 29188 ft 481 kts 77°
2026-04-12 04:39 55.42511 88.74932 29192 ft 481 kts 77°
2026-04-12 04:39 55.43059 88.86688 29193 ft 481 kts 77°
2026-04-12 04:40 55.43607 88.98424 29196 ft 480 kts 77°
2026-04-12 04:40 55.44157 89.10151 29195 ft 480 kts 77°
2026-04-12 04:41 55.44688 89.21876 29194 ft 480 kts 77°
2026-04-12 04:41 55.45203 89.33549 29191 ft 481 kts 77°
2026-04-12 04:42 55.45717 89.45294 29191 ft 480 kts 77°
2026-04-12 04:42 55.46225 89.57038 29186 ft 481 kts 77°
2026-04-12 04:43 55.46953 89.74680 29177 ft 481 kts 77°
2026-04-12 04:43 55.47421 89.86456 29175 ft 482 kts 77°
2026-04-12 04:44 55.47877 89.98245 29167 ft 481 kts 77°
2026-04-12 04:44 55.48320 90.09941 29170 ft 482 kts 77°
2026-04-12 04:45 55.48761 90.21733 29178 ft 482 kts 77°
2026-04-12 04:45 55.49185 90.33525 29179 ft 482 kts 77°
2026-04-12 04:46 55.49603 90.45329 29178 ft 482 kts 77°
2026-04-12 04:46 55.50005 90.57144 29183 ft 482 kts 77°
2026-04-12 04:47 55.50399 90.68932 29187 ft 481 kts 77°
2026-04-12 04:47 55.50785 90.80612 29192 ft 480 kts 77°
2026-04-12 04:48 55.51163 90.92390 29186 ft 480 kts 77°
2026-04-12 04:48 55.51507 91.04150 29187 ft 479 kts 78°
2026-04-12 04:49 55.51504 91.15967 29178 ft 489 kts 87°
2026-04-12 04:49 55.50868 91.27893 29165 ft 488 kts 87°
2026-04-12 04:50 55.50226 91.39812 29162 ft 488 kts 87°
2026-04-12 04:50 55.49572 91.51710 29155 ft 487 kts 87°
2026-04-12 04:51 55.48911 91.63600 29145 ft 487 kts 87°
2026-04-12 04:51 55.48237 91.75503 29139 ft 488 kts 87°
2026-04-12 04:52 55.47546 91.87417 29141 ft 488 kts 87°
2026-04-12 04:52 55.46843 91.99328 29143 ft 489 kts 87°
2026-04-12 04:53 55.46133 92.11234 29152 ft 489 kts 88°
2026-04-12 04:54 55.45044 92.29087 29150 ft 488 kts 88°
2026-04-12 04:54 55.44301 92.40975 29158 ft 488 kts 88°
2026-04-12 04:55 55.43539 92.52860 29160 ft 488 kts 88°
2026-04-12 04:55 55.42784 92.64741 29164 ft 488 kts 88°
2026-04-12 04:56 55.42043 92.76525 29168 ft 487 kts 88°
2026-04-12 04:56 55.41282 92.88351 29163 ft 486 kts 89°
2026-04-12 04:57 55.40492 93.00155 29166 ft 485 kts 89°
2026-04-12 04:57 55.39693 93.11917 29170 ft 484 kts 89°
2026-04-12 04:58 55.38895 93.23658 29172 ft 483 kts 90°
2026-04-12 04:58 55.38090 93.35364 29171 ft 482 kts 90°
2026-04-12 04:59 55.37273 93.47045 29165 ft 481 kts 90°
2026-04-12 04:59 55.36446 93.58706 29159 ft 481 kts 90°
2026-04-12 05:00 55.35606 93.70354 29159 ft 480 kts 91°
2026-04-12 05:00 55.34762 93.81931 29150 ft 481 kts 91°
2026-04-12 05:01 55.33901 93.93572 29155 ft 480 kts 91°
2026-04-12 05:01 55.33031 94.05221 29154 ft 481 kts 92°
2026-04-12 05:02 55.32139 94.16856 29164 ft 480 kts 92°
2026-04-12 05:02 55.31244 94.28391 29163 ft 479 kts 92°
2026-04-12 05:03 55.30347 94.39990 29165 ft 479 kts 92°
2026-04-12 05:03 55.29436 94.51557 29166 ft 479 kts 93°
2026-04-12 05:04 55.28504 94.63147 29167 ft 479 kts 93°
2026-04-12 05:04 55.27568 94.74743 29234 ft 482 kts 93°
2026-04-12 05:04 55.27184 94.80583 29415 ft 480 kts 88°
2026-04-12 05:05 55.27206 94.86322 29626 ft 474 kts 79°
2026-04-12 05:05 55.27660 94.92003 29836 ft 468 kts 71°
2026-04-12 05:05 55.28535 94.97525 30078 ft 460 kts 63°
2026-04-12 05:05 55.29635 95.02784 30273 ft 460 kts 63°
2026-04-12 05:06 55.30723 95.07992 30468 ft 460 kts 64°
2026-04-12 05:06 55.31818 95.13279 30655 ft 461 kts 64°
2026-04-12 05:06 55.32905 95.18578 30861 ft 461 kts 64°
2026-04-12 05:06 55.33991 95.23894 31057 ft 462 kts 64°
2026-04-12 05:07 55.35080 95.29209 31161 ft 463 kts 64°
2026-04-12 05:07 55.37257 95.39882 31173 ft 464 kts 65°
2026-04-12 05:08 55.39428 95.50574 31175 ft 464 kts 65°
2026-04-12 05:08 55.41587 95.61295 31174 ft 465 kts 65°
2026-04-12 05:09 55.43727 95.71989 31175 ft 466 kts 65°
2026-04-12 05:09 55.45870 95.82745 31176 ft 465 kts 65°
2026-04-12 05:10 55.48010 95.93520 31171 ft 465 kts 65°
2026-04-12 05:10 55.50141 96.04302 31172 ft 465 kts 66°
2026-04-12 05:11 55.52258 96.15086 31162 ft 465 kts 66°
2026-04-12 05:11 55.54376 96.25884 31160 ft 466 kts 66°
2026-04-12 05:12 55.56475 96.36650 31164 ft 466 kts 66°
2026-04-12 05:12 55.58567 96.47506 31164 ft 467 kts 66°
2026-04-12 05:13 55.60652 96.58381 31169 ft 467 kts 66°
2026-04-12 05:13 55.62732 96.69276 31176 ft 467 kts 67°
2026-04-12 05:14 55.64804 96.80183 31174 ft 467 kts 67°
2026-04-12 05:14 55.66867 96.91094 31178 ft 467 kts 67°
2026-04-12 05:15 55.68927 97.02025 31177 ft 468 kts 67°
2026-04-12 05:15 55.70968 97.12967 31178 ft 468 kts 68°
2026-04-12 05:16 55.73004 97.23939 31182 ft 468 kts 68°
2026-04-12 05:16 55.75033 97.34901 31181 ft 468 kts 68°
2026-04-12 05:17 55.77036 97.45810 31179 ft 467 kts 68°
2026-04-12 05:17 55.79037 97.56798 31181 ft 467 kts 68°
2026-04-12 05:18 55.81033 97.67799 31179 ft 467 kts 68°
2026-04-12 05:18 55.83020 97.78797 31180 ft 467 kts 69°
2026-04-12 05:19 55.84901 97.89879 31179 ft 469 kts 75°
2026-04-12 05:19 55.85544 98.01465 31175 ft 472 kts 84°
2026-04-12 05:20 55.85893 98.13141 31171 ft 472 kts 84°
2026-04-12 05:20 55.86245 98.24823 31179 ft 472 kts 84°
2026-04-12 05:21 55.86526 98.34533 31177 ft 473 kts 84°
2026-04-12 05:21 55.86850 98.46241 31177 ft 473 kts 84°
2026-04-12 05:22 55.87203 98.59837 31179 ft 473 kts 85°
2026-04-12 05:22 55.87450 98.69646 31177 ft 473 kts 85°
2026-04-12 05:23 55.87734 98.81303 31179 ft 474 kts 85°
2026-04-12 05:23 55.88018 98.93043 31182 ft 475 kts 85°
2026-04-12 05:24 55.88285 99.04811 31184 ft 475 kts 85°
2026-04-12 05:24 55.88537 99.16576 31190 ft 475 kts 86°
2026-04-12 05:25 55.88779 99.28327 31189 ft 475 kts 86°
2026-04-12 05:25 55.89018 99.40074 31188 ft 474 kts 86°
2026-04-12 05:26 55.89246 99.51818 31191 ft 474 kts 86°
2026-04-12 05:26 55.89463 99.63563 31193 ft 474 kts 86°
2026-04-12 05:27 55.89664 99.75322 31198 ft 474 kts 86°
2026-04-12 05:27 55.89840 99.87000 31198 ft 473 kts 86°
2026-04-12 05:28 55.90017 99.98713 31190 ft 472 kts 86°
2026-04-12 05:28 55.90190 100.10442 31191 ft 473 kts 87°
2026-04-12 05:29 55.90344 100.22157 31186 ft 472 kts 87°
2026-04-12 05:29 55.90491 100.33861 31183 ft 472 kts 87°
2026-04-12 05:30 55.90621 100.45499 31176 ft 473 kts 87°
2026-04-12 05:30 55.90740 100.57231 31175 ft 473 kts 87°
2026-04-12 05:31 55.90852 100.68970 31176 ft 474 kts 87°
2026-04-12 05:31 55.90950 100.80716 31176 ft 474 kts 88°
2026-04-12 05:32 55.91071 100.92457 31175 ft 474 kts 86°
2026-04-12 05:32 55.91272 101.04201 31179 ft 474 kts 86°
2026-04-12 05:33 55.91472 101.15956 31176 ft 474 kts 87°
2026-04-12 05:33 55.91634 101.27639 31178 ft 474 kts 87°
2026-04-12 05:34 55.91768 101.39399 31177 ft 474 kts 87°
2026-04-12 05:34 55.91891 101.51162 31181 ft 474 kts 87°
2026-04-12 05:35 55.92016 101.62906 31184 ft 474 kts 87°
2026-04-12 05:35 55.92130 101.74649 31185 ft 473 kts 87°
2026-04-12 05:36 55.92233 101.86378 31189 ft 473 kts 87°
2026-04-12 05:36 55.92327 101.98095 31187 ft 472 kts 88°
2026-04-12 05:37 55.92406 102.09800 31184 ft 472 kts 88°
2026-04-12 05:37 55.92481 102.21504 31171 ft 472 kts 88°
2026-04-12 05:38 55.92538 102.33196 31160 ft 471 kts 88°
2026-04-12 05:38 55.92583 102.44887 31144 ft 472 kts 88°
2026-04-12 05:39 55.92623 102.56591 31144 ft 472 kts 88°
2026-04-12 05:39 55.92643 102.68333 31145 ft 474 kts 88°
2026-04-12 05:40 55.92654 102.80005 31146 ft 474 kts 88°
2026-04-12 05:40 55.92665 102.91782 31142 ft 475 kts 88°
2026-04-12 05:41 55.92664 103.03558 31145 ft 475 kts 88°
2026-04-12 05:41 55.92649 103.15365 31135 ft 476 kts 88°
2026-04-12 05:42 55.92631 103.27196 31149 ft 478 kts 89°
2026-04-12 05:42 55.92603 103.39074 31165 ft 480 kts 89°
2026-04-12 05:43 55.92507 103.56891 31179 ft 478 kts 89°
2026-04-12 05:43 55.92430 103.68651 31181 ft 478 kts 89°
2026-04-12 05:44 55.92354 103.80496 31188 ft 477 kts 89°
2026-04-12 05:44 55.92266 103.92314 31188 ft 476 kts 89°
2026-04-12 05:45 55.92166 104.04110 31191 ft 476 kts 88°
2026-04-12 05:45 55.92058 104.15886 31179 ft 475 kts 89°
2026-04-12 05:46 55.91937 104.27655 31174 ft 475 kts 89°
2026-04-12 05:46 55.91799 104.39429 31167 ft 475 kts 89°
2026-04-12 05:47 55.91648 104.51211 31168 ft 476 kts 89°
2026-04-12 05:47 55.91499 104.63006 31164 ft 476 kts 89°
2026-04-12 05:48 55.91336 104.74797 31157 ft 476 kts 90°
2026-04-12 05:48 55.91162 104.86592 31158 ft 476 kts 90°
2026-04-12 05:49 55.90978 104.98397 31155 ft 477 kts 90°
2026-04-12 05:49 55.90776 105.10150 31164 ft 478 kts 90°
2026-04-12 05:50 55.90563 105.21987 31169 ft 478 kts 90°
2026-04-12 05:50 55.90348 105.33815 31169 ft 478 kts 90°
2026-04-12 05:51 55.90112 105.45643 31168 ft 478 kts 90°
2026-04-12 05:51 55.89857 105.57467 31173 ft 477 kts 90°
2026-04-12 05:52 55.89606 105.69291 31174 ft 477 kts 90°
2026-04-12 05:52 55.89348 105.81084 31178 ft 476 kts 90°
2026-04-12 05:53 55.89079 105.92879 31177 ft 476 kts 90°
2026-04-12 05:53 55.88786 106.04592 31176 ft 476 kts 91°
2026-04-12 05:54 55.88479 106.16349 31178 ft 475 kts 91°
2026-04-12 05:54 55.88168 106.28128 31174 ft 476 kts 91°
2026-04-12 05:55 55.87853 106.39916 31170 ft 476 kts 91°
2026-04-12 05:55 55.87524 106.51685 31168 ft 476 kts 91°
2026-04-12 05:56 55.87186 106.63474 31167 ft 477 kts 91°
2026-04-12 05:56 55.86839 106.75194 31166 ft 477 kts 91°
2026-04-12 05:57 55.86475 106.86983 31172 ft 477 kts 91°
2026-04-12 05:57 55.86087 106.98774 31171 ft 477 kts 91°
2026-04-12 05:58 55.85696 107.10564 31173 ft 477 kts 91°
2026-04-12 05:58 55.85295 107.22380 31167 ft 477 kts 91°
2026-04-12 05:59 55.84893 107.34173 31167 ft 477 kts 92°
2026-04-12 05:59 55.84474 107.45899 31170 ft 478 kts 92°
2026-04-12 06:00 55.84046 107.57688 31158 ft 477 kts 92°
2026-04-12 06:00 55.83612 107.69474 31150 ft 477 kts 92°
2026-04-12 06:01 55.83158 107.81247 31154 ft 477 kts 92°
2026-04-12 06:01 55.82690 107.93018 31151 ft 476 kts 92°
2026-04-12 06:02 55.82210 108.04765 31142 ft 476 kts 92°
2026-04-12 06:02 55.81723 108.16518 31141 ft 477 kts 92°
2026-04-12 06:03 55.81230 108.28290 31146 ft 477 kts 92°
2026-04-12 06:03 55.80723 108.40043 31143 ft 476 kts 92°
2026-04-12 06:04 55.80209 108.51779 31141 ft 476 kts 93°
2026-04-12 06:04 55.79683 108.63431 31138 ft 477 kts 93°
2026-04-12 06:05 55.79134 108.75181 31139 ft 477 kts 93°
2026-04-12 06:05 55.78578 108.86930 31133 ft 477 kts 93°
2026-04-12 06:06 55.78008 108.98686 31144 ft 477 kts 94°
2026-04-12 06:06 55.77436 109.10423 31144 ft 477 kts 94°
2026-04-12 06:07 55.76850 109.22153 31143 ft 476 kts 94°
2026-04-12 06:07 55.76253 109.33863 31141 ft 476 kts 94°
2026-04-12 06:08 55.75650 109.45581 31126 ft 477 kts 94°
2026-04-12 06:08 55.75023 109.57290 31121 ft 477 kts 94°
2026-04-12 06:09 55.74393 109.68940 31123 ft 477 kts 94°
2026-04-12 06:09 55.73744 109.80663 31123 ft 477 kts 95°
2026-04-12 06:10 55.73080 109.92397 31124 ft 477 kts 95°
2026-04-12 06:10 55.72409 110.04102 31128 ft 477 kts 95°
2026-04-12 06:11 55.71722 110.15799 31128 ft 477 kts 95°
2026-04-12 06:11 55.71023 110.27492 31129 ft 477 kts 95°
2026-04-12 06:12 55.70435 110.37213 31127 ft 477 kts 95°
2026-04-12 06:12 55.69720 110.48903 31125 ft 476 kts 95°
2026-04-12 06:13 55.69002 110.60577 31124 ft 476 kts 96°
2026-04-12 06:13 55.68146 110.74144 31121 ft 476 kts 96°
2026-04-12 06:14 55.67513 110.83913 31118 ft 476 kts 96°
2026-04-12 06:14 55.66758 110.95488 31119 ft 476 kts 96°
2026-04-12 06:15 55.65985 111.07143 31121 ft 476 kts 96°
2026-04-12 06:15 55.65212 111.18782 31121 ft 476 kts 96°
2026-04-12 06:16 55.64417 111.30407 31121 ft 476 kts 96°
2026-04-12 06:16 55.63622 111.42040 31124 ft 475 kts 96°
2026-04-12 06:17 55.62821 111.53653 31125 ft 475 kts 97°
2026-04-12 06:17 55.61997 111.65251 31125 ft 474 kts 97°
2026-04-12 06:18 55.61180 111.76751 31128 ft 474 kts 97°
2026-04-12 06:18 55.60347 111.88327 31125 ft 474 kts 97°
2026-04-12 06:19 55.59495 111.99884 31122 ft 474 kts 97°
2026-04-12 06:19 55.58642 112.11446 31124 ft 474 kts 97°
2026-04-12 06:20 55.57773 112.23001 31125 ft 473 kts 98°
2026-04-12 06:20 55.56887 112.34536 31122 ft 473 kts 98°
2026-04-12 06:21 55.56007 112.45986 31119 ft 473 kts 98°
2026-04-12 06:21 55.55116 112.57487 31112 ft 472 kts 98°
2026-04-12 06:22 55.54206 112.68971 31109 ft 472 kts 98°
2026-04-12 06:22 55.53280 112.80447 31104 ft 472 kts 98°
2026-04-12 06:23 55.52347 112.91938 31106 ft 472 kts 98°
2026-04-12 06:23 55.51411 113.03417 31105 ft 472 kts 98°
2026-04-12 06:24 55.50463 113.14881 31103 ft 471 kts 99°
2026-04-12 06:24 55.49514 113.26242 31107 ft 472 kts 99°
2026-04-12 06:25 55.48542 113.37680 31106 ft 471 kts 99°
2026-04-12 06:25 55.47553 113.49099 31091 ft 471 kts 99°
2026-04-12 06:26 55.46564 113.60504 31085 ft 470 kts 99°
2026-04-12 06:26 55.45566 113.71903 31080 ft 470 kts 99°
2026-04-12 06:27 55.44559 113.83286 31070 ft 470 kts 100°
2026-04-12 06:27 55.43530 113.94676 31070 ft 470 kts 100°
2026-04-12 06:28 55.42499 114.06022 31070 ft 469 kts 100°
2026-04-12 06:28 55.41467 114.17358 31072 ft 469 kts 100°
2026-04-12 06:29 55.40426 114.28604 31046 ft 468 kts 100°
2026-04-12 06:29 55.39366 114.39893 31036 ft 467 kts 100°
2026-04-12 06:30 55.38301 114.51166 31031 ft 467 kts 101°
2026-04-12 06:30 55.37225 114.62444 31029 ft 467 kts 101°
2026-04-12 06:31 55.36133 114.73706 31032 ft 467 kts 101°
2026-04-12 06:31 55.35028 114.84940 31030 ft 466 kts 101°
2026-04-12 06:32 55.33922 114.96162 31031 ft 466 kts 101°
2026-04-12 06:32 55.32806 115.07380 31037 ft 466 kts 101°
2026-04-12 06:33 55.31694 115.18487 31036 ft 465 kts 101°
2026-04-12 06:33 55.30561 115.29661 31062 ft 467 kts 101°
2026-04-12 06:34 55.29985 115.35293 31213 ft 469 kts 102°
2026-04-12 06:34 55.29409 115.40930 31428 ft 470 kts 102°
2026-04-12 06:34 55.28830 115.46571 31623 ft 471 kts 102°
2026-04-12 06:34 55.28245 115.52223 31847 ft 471 kts 102°
2026-04-12 06:35 55.27065 115.63531 32267 ft 471 kts 102°
2026-04-12 06:35 55.26472 115.69180 32453 ft 472 kts 102°
2026-04-12 06:35 55.25874 115.74835 32635 ft 472 kts 102°
2026-04-12 06:36 55.25273 115.80501 32816 ft 473 kts 102°
2026-04-12 06:36 55.24669 115.86168 32986 ft 473 kts 102°
2026-04-12 06:36 55.24061 115.91838 33039 ft 474 kts 102°
2026-04-12 06:37 55.22835 116.03196 33029 ft 474 kts 102°
2026-04-12 06:37 55.21604 116.14516 33027 ft 472 kts 102°
2026-04-12 06:38 55.20373 116.25809 33026 ft 472 kts 103°
2026-04-12 06:38 55.19126 116.37105 33028 ft 473 kts 103°
2026-04-12 06:39 55.17879 116.48332 33027 ft 473 kts 103°
2026-04-12 06:39 55.16619 116.59626 33028 ft 473 kts 103°
2026-04-12 06:40 55.15342 116.70919 33024 ft 474 kts 103°
2026-04-12 06:40 55.14048 116.82213 33030 ft 474 kts 103°
2026-04-12 06:41 55.12741 116.93485 33033 ft 473 kts 103°
2026-04-12 06:41 55.11425 117.04756 33036 ft 473 kts 103°
2026-04-12 06:42 55.10109 117.16013 33027 ft 473 kts 103°
2026-04-12 06:42 55.08782 117.27250 33028 ft 472 kts 104°
2026-04-12 06:43 55.07451 117.38397 33021 ft 471 kts 104°
2026-04-12 06:43 55.06098 117.49592 33023 ft 472 kts 104°
2026-04-12 06:44 55.04747 117.60775 33022 ft 472 kts 104°
2026-04-12 06:44 55.03385 117.71973 33020 ft 471 kts 104°
2026-04-12 06:45 55.02004 117.83137 33020 ft 471 kts 104°
2026-04-12 06:45 55.00608 117.94293 33022 ft 471 kts 104°
2026-04-12 06:46 54.99205 118.05439 33024 ft 471 kts 105°
2026-04-12 06:46 54.97806 118.16578 33021 ft 471 kts 105°
2026-04-12 06:47 54.96399 118.27696 33014 ft 470 kts 105°
2026-04-12 06:47 54.94980 118.38727 33014 ft 470 kts 105°
2026-04-12 06:48 54.93542 118.49827 33016 ft 470 kts 105°
2026-04-12 06:48 54.92097 118.60896 33012 ft 469 kts 105°
2026-04-12 06:49 54.90643 118.71947 33013 ft 469 kts 105°
2026-04-12 06:49 54.89187 118.82991 33009 ft 469 kts 105°
2026-04-12 06:50 54.87726 118.94043 33004 ft 469 kts 106°
2026-04-12 06:50 54.86243 119.05056 33000 ft 468 kts 106°
2026-04-12 06:51 54.84749 119.16042 32997 ft 467 kts 106°
2026-04-12 06:51 54.83250 119.27013 32986 ft 467 kts 106°
2026-04-12 06:52 54.81755 119.37989 32988 ft 467 kts 107°
2026-04-12 06:52 54.80262 119.48887 32990 ft 467 kts 107°
2026-04-12 06:53 54.78737 119.59845 32976 ft 467 kts 107°
2026-04-12 06:53 54.77204 119.70757 32981 ft 466 kts 107°
2026-04-12 06:54 54.75667 119.81663 32981 ft 466 kts 107°
2026-04-12 06:54 54.74120 119.92588 32972 ft 466 kts 107°
2026-04-12 06:55 54.72561 120.03473 32976 ft 466 kts 108°
2026-04-12 06:55 54.70995 120.14358 32974 ft 466 kts 108°
2026-04-12 06:56 54.69435 120.25157 32964 ft 466 kts 108°
2026-04-12 06:56 54.67845 120.36003 32969 ft 466 kts 108°
2026-04-12 06:57 54.66253 120.46842 32962 ft 465 kts 108°
2026-04-12 06:57 54.64650 120.57685 32964 ft 466 kts 108°
2026-04-12 06:58 54.63039 120.68512 32964 ft 466 kts 108°
2026-04-12 06:58 54.61415 120.79321 32960 ft 465 kts 109°
2026-04-12 06:59 54.59775 120.90118 32959 ft 465 kts 109°
2026-04-12 06:59 54.58146 121.00844 32957 ft 465 kts 109°
2026-04-12 07:00 54.55678 121.16999 32959 ft 465 kts 109°
2026-04-12 07:00 54.54009 121.27752 32953 ft 465 kts 109°
2026-04-12 07:01 54.52334 121.38506 32953 ft 464 kts 109°
2026-04-12 07:01 54.50660 121.49240 32953 ft 465 kts 109°
2026-04-12 07:02 54.48969 121.59982 32953 ft 464 kts 110°
2026-04-12 07:02 54.47281 121.70626 32948 ft 464 kts 110°
2026-04-12 07:03 54.45568 121.81336 32944 ft 465 kts 110°
2026-04-12 07:03 54.43841 121.92038 32946 ft 465 kts 110°
2026-04-12 07:04 54.42117 122.02733 32944 ft 464 kts 110°
2026-04-12 07:04 54.40080 122.13204 32945 ft 460 kts 117°
2026-04-12 07:05 54.38094 122.21661 32941 ft 460 kts 117°
2026-04-12 07:05 54.35309 122.33493 32941 ft 460 kts 117°
2026-04-12 07:06 54.33295 122.42012 32940 ft 460 kts 117°
2026-04-12 07:06 54.30499 122.53826 32940 ft 461 kts 117°
2026-04-12 07:07 54.28500 122.62269 32936 ft 460 kts 117°
2026-04-12 07:07 54.26081 122.72400 32934 ft 460 kts 117°
2026-04-12 07:08 54.23649 122.82507 32930 ft 459 kts 117°
2026-04-12 07:08 54.21209 122.92599 32927 ft 460 kts 117°
2026-04-12 07:09 54.18763 123.02697 32927 ft 460 kts 117°
2026-04-12 07:09 54.16313 123.12762 32923 ft 460 kts 118°
2026-04-12 07:10 54.13840 123.22821 32921 ft 459 kts 118°
2026-04-12 07:10 54.11368 123.32864 32920 ft 460 kts 118°
2026-04-12 07:11 54.08907 123.42844 32918 ft 460 kts 118°
2026-04-12 07:11 54.06417 123.52890 32919 ft 460 kts 118°
2026-04-12 07:12 54.03915 123.62919 32909 ft 460 kts 118°
2026-04-12 07:12 54.01413 123.72937 32909 ft 460 kts 118°
2026-04-12 07:13 53.98897 123.82933 32905 ft 460 kts 118°
2026-04-12 07:13 53.96360 123.92940 32901 ft 460 kts 118°
2026-04-12 07:14 53.93848 124.02867 32904 ft 460 kts 118°
2026-04-12 07:14 53.91311 124.12845 32900 ft 460 kts 118°
2026-04-12 07:15 53.88758 124.22795 32899 ft 460 kts 118°
2026-04-12 07:15 53.86195 124.32726 32902 ft 460 kts 118°
2026-04-12 07:16 53.83648 124.42599 32900 ft 460 kts 118°
2026-04-12 07:16 53.81073 124.52519 32895 ft 460 kts 119°
2026-04-12 07:17 53.78489 124.62433 32888 ft 461 kts 119°
2026-04-12 07:17 53.75895 124.72338 32885 ft 461 kts 119°
2026-04-12 07:18 53.73289 124.82236 32883 ft 461 kts 119°
2026-04-12 07:18 53.70677 124.92122 32878 ft 461 kts 119°
2026-04-12 07:19 53.68057 125.02010 32879 ft 461 kts 119°
2026-04-12 07:19 53.65438 125.11819 32881 ft 461 kts 119°
2026-04-12 07:20 53.62785 125.21728 32882 ft 461 kts 120°
2026-04-12 07:20 53.60152 125.31511 32872 ft 461 kts 120°
2026-04-12 07:21 53.57496 125.41335 32862 ft 461 kts 120°
2026-04-12 07:21 53.54833 125.51130 32853 ft 460 kts 120°
2026-04-12 07:22 53.52185 125.60874 32845 ft 461 kts 120°
2026-04-12 07:22 53.49517 125.70652 32845 ft 460 kts 120°
2026-04-12 07:23 53.46661 125.80206 32839 ft 454 kts 129°
2026-04-12 07:23 53.42874 125.88554 32838 ft 449 kts 134°
2026-04-12 07:24 53.39021 125.96799 32836 ft 449 kts 134°
2026-04-12 07:24 53.35168 126.05047 32833 ft 449 kts 134°
2026-04-12 07:25 53.31314 126.13284 32828 ft 449 kts 134°
2026-04-12 07:25 53.27447 126.21490 32827 ft 449 kts 134°
2026-04-12 07:26 53.23563 126.29669 32824 ft 450 kts 134°
2026-04-12 07:26 53.19669 126.37851 32822 ft 450 kts 134°
2026-04-12 07:27 53.15800 126.45978 32819 ft 451 kts 134°
2026-04-12 07:27 53.11898 126.54156 32819 ft 451 kts 134°
2026-04-12 07:28 53.07988 126.62333 32816 ft 451 kts 134°
2026-04-12 07:28 53.04063 126.70491 32817 ft 452 kts 134°
2026-04-12 07:29 53.00133 126.78627 32818 ft 452 kts 134°
2026-04-12 07:29 52.96199 126.86766 32817 ft 452 kts 134°
2026-04-12 07:30 52.92256 126.94887 32818 ft 452 kts 134°
2026-04-12 07:30 52.88307 127.03013 32818 ft 453 kts 134°
2026-04-12 07:31 52.84346 127.11133 32814 ft 453 kts 134°
2026-04-12 07:31 52.80373 127.19213 32815 ft 453 kts 134°
2026-04-12 07:32 52.76421 127.27234 32819 ft 453 kts 134°
2026-04-12 07:32 52.72441 127.35308 32821 ft 454 kts 134°
2026-04-12 07:33 52.68461 127.43382 32820 ft 454 kts 134°
2026-04-12 07:33 52.64457 127.51429 32820 ft 454 kts 135°
2026-04-12 07:34 52.60431 127.59423 32819 ft 454 kts 135°
2026-04-12 07:34 52.56387 127.67414 32818 ft 455 kts 135°
2026-04-12 07:35 52.52345 127.75403 32813 ft 455 kts 135°
2026-04-12 07:35 52.48290 127.83413 32818 ft 456 kts 135°
2026-04-12 07:36 52.44226 127.91411 32823 ft 456 kts 135°
2026-04-12 07:36 52.40183 127.99328 32825 ft 456 kts 135°
2026-04-12 07:37 52.36107 128.07288 32822 ft 456 kts 135°
2026-04-12 07:37 52.32026 128.15230 32822 ft 456 kts 135°
2026-04-12 07:38 52.27938 128.23170 32824 ft 456 kts 135°
2026-04-12 07:38 52.23841 128.31089 32825 ft 457 kts 135°
2026-04-12 07:39 52.19738 128.38996 32825 ft 457 kts 135°
2026-04-12 07:39 52.15636 128.46894 32824 ft 456 kts 135°
2026-04-12 07:40 52.11528 128.54774 32816 ft 456 kts 135°
2026-04-12 07:40 52.07413 128.62622 32814 ft 457 kts 135°
2026-04-12 07:41 52.03284 128.70475 32817 ft 457 kts 135°
2026-04-12 07:41 51.99184 128.78272 32816 ft 457 kts 135°
2026-04-12 07:42 51.95045 128.86101 32805 ft 458 kts 135°
2026-04-12 07:43 51.86721 129.01786 32802 ft 460 kts 136°
2026-04-12 07:43 51.82540 129.09641 32803 ft 461 kts 135°
2026-04-12 07:44 51.78350 129.17488 32804 ft 461 kts 135°
2026-04-12 07:44 51.74141 129.25324 32808 ft 462 kts 135°
2026-04-12 07:45 51.69926 129.33160 32810 ft 462 kts 136°
2026-04-12 07:45 51.65728 129.40932 32810 ft 462 kts 136°
2026-04-12 07:46 51.61501 129.48731 32810 ft 462 kts 135°
2026-04-12 07:46 51.57270 129.56534 32811 ft 463 kts 136°
2026-04-12 07:47 51.53030 129.64316 32814 ft 464 kts 136°
2026-04-12 07:47 51.48772 129.72089 32816 ft 464 kts 136°
2026-04-12 07:48 51.44509 129.79859 32813 ft 463 kts 136°
2026-04-12 07:48 51.40251 129.87603 32815 ft 463 kts 136°
2026-04-12 07:49 51.35984 129.95351 32816 ft 464 kts 136°
2026-04-12 07:49 51.31731 130.03015 32813 ft 463 kts 136°
2026-04-12 07:50 51.27389 130.10631 32808 ft 464 kts 137°
2026-04-12 07:50 51.23012 130.18207 32807 ft 464 kts 137°
2026-04-12 07:51 51.18632 130.25795 32805 ft 465 kts 137°
2026-04-12 07:51 51.14254 130.33401 32801 ft 466 kts 137°
2026-04-12 07:52 51.09870 130.41001 32804 ft 466 kts 137°
2026-04-12 07:52 51.05463 130.48602 32806 ft 467 kts 137°
2026-04-12 07:53 51.01052 130.56188 32809 ft 467 kts 137°
2026-04-12 07:53 50.96634 130.63764 32811 ft 468 kts 137°
2026-04-12 07:54 50.92232 130.71293 32810 ft 468 kts 137°
2026-04-12 07:54 50.87796 130.78856 32810 ft 469 kts 137°
2026-04-12 07:55 50.83338 130.86424 32807 ft 469 kts 137°
2026-04-12 07:55 50.78877 130.93969 32808 ft 470 kts 137°
2026-04-12 07:56 50.74407 131.01507 32807 ft 470 kts 137°
2026-04-12 07:56 50.69931 131.09031 32809 ft 471 kts 137°
2026-04-12 07:57 50.65449 131.16558 32810 ft 471 kts 137°
2026-04-12 07:57 50.60949 131.24078 32807 ft 472 kts 137°
2026-04-12 07:58 50.56442 131.31591 32801 ft 473 kts 137°
2026-04-12 07:58 50.51917 131.39115 32803 ft 474 kts 137°
2026-04-12 07:59 50.47373 131.46639 32808 ft 475 kts 137°
2026-04-12 07:59 50.42852 131.54124 32802 ft 475 kts 137°
2026-04-12 08:00 50.39036 131.60413 32800 ft 475 kts 138°
2026-04-12 08:00 50.33724 131.69126 32799 ft 476 kts 138°
2026-04-12 08:01 50.29918 131.75364 32797 ft 477 kts 138°
2026-04-12 08:01 50.25329 131.82862 32793 ft 477 kts 138°
2026-04-12 08:02 50.20724 131.90358 32795 ft 478 kts 138°
2026-04-12 08:02 50.16108 131.97852 32796 ft 479 kts 138°
2026-04-12 08:03 50.11487 132.05341 32802 ft 479 kts 138°
2026-04-12 08:03 50.06858 132.12802 32803 ft 479 kts 138°
2026-04-12 08:04 50.02220 132.20251 32803 ft 479 kts 138°
2026-04-12 08:04 49.97566 132.27667 32803 ft 479 kts 139°
2026-04-12 08:05 49.92895 132.35055 32803 ft 479 kts 139°
2026-04-12 08:05 49.88240 132.42384 32804 ft 480 kts 139°
2026-04-12 08:06 49.83550 132.49764 32806 ft 481 kts 139°
2026-04-12 08:06 49.78858 132.57139 32806 ft 481 kts 139°
2026-04-12 08:07 49.74145 132.64509 32810 ft 482 kts 139°
2026-04-12 08:07 49.69426 132.71886 32815 ft 483 kts 139°
2026-04-12 08:08 49.64690 132.79266 32814 ft 483 kts 139°
2026-04-12 08:08 49.59946 132.86625 32813 ft 484 kts 139°
2026-04-12 08:09 49.55222 132.93924 32814 ft 484 kts 139°
2026-04-12 08:09 49.50466 133.01257 32815 ft 484 kts 139°
2026-04-12 08:10 49.45702 133.08590 32816 ft 484 kts 139°
2026-04-12 08:10 49.40926 133.15904 32814 ft 485 kts 139°
2026-04-12 08:11 49.36136 133.23195 32814 ft 485 kts 139°
2026-04-12 08:11 49.31347 133.30497 32814 ft 485 kts 139°
2026-04-12 08:12 49.26546 133.37775 32816 ft 486 kts 139°
2026-04-12 08:12 49.21894 133.45213 32811 ft 489 kts 130°
2026-04-12 08:13 49.18261 133.54056 32810 ft 492 kts 122°
2026-04-12 08:13 49.14805 133.63095 32808 ft 493 kts 122°
2026-04-12 08:14 49.11306 133.72109 32806 ft 493 kts 122°
2026-04-12 08:14 49.07793 133.81107 32803 ft 494 kts 123°
2026-04-12 08:15 49.04285 133.90109 32802 ft 494 kts 122°
2026-04-12 08:15 49.00771 133.99125 32798 ft 494 kts 122°
2026-04-12 08:16 48.97245 134.08115 32799 ft 495 kts 122°
2026-04-12 08:16 48.93729 134.17049 32801 ft 495 kts 122°
2026-04-12 08:17 48.90187 134.26019 32802 ft 495 kts 122°
2026-04-12 08:17 48.86764 134.35117 32805 ft 496 kts 120°
2026-04-12 08:18 48.83426 134.44295 32808 ft 496 kts 120°
2026-04-12 08:18 48.80066 134.53447 32805 ft 497 kts 121°
2026-04-12 08:19 48.76667 134.62563 32809 ft 497 kts 121°
2026-04-12 08:19 48.73264 134.71601 32812 ft 497 kts 121°
2026-04-12 08:20 48.69837 134.80676 32813 ft 496 kts 121°
2026-04-12 08:20 48.66414 134.89750 32814 ft 496 kts 121°
2026-04-12 08:21 48.62981 134.98820 32815 ft 496 kts 121°
2026-04-12 08:21 48.59499 135.07829 32817 ft 495 kts 127°
2026-04-12 08:22 48.57260 135.11719 33012 ft 488 kts 141°
2026-04-12 08:22 48.54582 135.14801 33261 ft 481 kts 153°
2026-04-12 08:22 48.51652 135.17147 33510 ft 474 kts 161°
2026-04-12 08:22 48.48585 135.18843 33728 ft 466 kts 171°
2026-04-12 08:23 48.45420 135.19678 33808 ft 459 kts 183°
2026-04-12 08:23 48.42291 135.19557 33818 ft 455 kts 193°
2026-04-12 08:23 48.35956 135.18602 33814 ft 458 kts 192°
2026-04-12 08:24 48.29593 135.17726 33813 ft 460 kts 192°
2026-04-12 08:24 48.23202 135.16913 33812 ft 460 kts 191°
2026-04-12 08:25 48.16818 135.16110 33814 ft 461 kts 191°
2026-04-12 08:25 48.10424 135.15280 33817 ft 461 kts 192°
2026-04-12 08:26 48.04079 135.14448 33822 ft 460 kts 192°
2026-04-12 08:26 47.97690 135.13625 33818 ft 460 kts 192°
2026-04-12 08:27 47.91302 135.12806 33806 ft 461 kts 192°
2026-04-12 08:27 47.84908 135.11972 33802 ft 461 kts 192°
2026-04-12 08:28 47.78504 135.11124 33803 ft 462 kts 192°
2026-04-12 08:28 47.72094 135.10294 33806 ft 463 kts 192°
2026-04-12 08:29 47.65723 135.09480 33806 ft 463 kts 192°
2026-04-12 08:29 47.59302 135.08670 33808 ft 463 kts 192°
2026-04-12 08:30 47.52881 135.07861 33811 ft 463 kts 192°
2026-04-12 08:30 47.46463 135.07045 33812 ft 463 kts 192°
2026-04-12 08:31 47.40039 135.06230 33814 ft 463 kts 192°
2026-04-12 08:31 47.33619 135.05409 33819 ft 463 kts 192°
2026-04-12 08:32 47.27196 135.04599 33815 ft 463 kts 192°
2026-04-12 08:32 47.20771 135.03794 33810 ft 463 kts 192°
2026-04-12 08:33 47.14386 135.02975 33811 ft 464 kts 193°
2026-04-12 08:33 47.07947 135.02162 33813 ft 464 kts 192°
2026-04-12 08:34 47.01512 135.01373 33813 ft 464 kts 192°
2026-04-12 08:34 46.95070 135.00574 33814 ft 464 kts 193°
2026-04-12 08:35 46.88636 134.99769 33820 ft 464 kts 193°
2026-04-12 08:35 46.82203 134.98961 33822 ft 464 kts 193°
2026-04-12 08:36 46.75771 134.98126 33818 ft 464 kts 193°
2026-04-12 08:36 46.69345 134.97237 33816 ft 464 kts 193°
2026-04-12 08:37 46.62955 134.96343 33818 ft 464 kts 193°
2026-04-12 08:37 46.56522 134.95468 33826 ft 465 kts 193°
2026-04-12 08:38 46.50077 134.94606 33834 ft 465 kts 193°
2026-04-12 08:38 46.43631 134.93745 33841 ft 465 kts 193°
2026-04-12 08:39 46.37187 134.92875 33844 ft 465 kts 194°
2026-04-12 08:39 46.30743 134.92005 33846 ft 465 kts 193°
2026-04-12 08:40 46.24300 134.91143 33848 ft 465 kts 193°
2026-04-12 08:40 46.17884 134.90282 33850 ft 465 kts 193°
2026-04-12 08:41 46.11445 134.89427 33849 ft 465 kts 193°
2026-04-12 08:41 46.05000 134.88572 33850 ft 465 kts 193°
2026-04-12 08:42 45.98564 134.87714 33852 ft 465 kts 194°
2026-04-12 08:42 45.92168 134.86631 33846 ft 455 kts 202°
2026-04-12 08:43 45.89159 134.85382 33845 ft 444 kts 210°
2026-04-12 08:43 45.86373 134.83591 33844 ft 435 kts 218°
2026-04-12 08:43 45.81140 134.79320 33843 ft 433 kts 219°
2026-04-12 08:44 45.75916 134.75109 33844 ft 434 kts 218°
2026-04-12 08:44 45.70645 134.70881 33847 ft 434 kts 219°
2026-04-12 08:45 45.65384 134.66641 33850 ft 434 kts 219°
2026-04-12 08:45 45.60126 134.62415 33842 ft 433 kts 219°
2026-04-12 08:46 45.54860 134.58188 33854 ft 435 kts 218°
2026-04-12 08:47 45.46975 134.51888 33859 ft 434 kts 218°
2026-04-12 08:47 45.41697 134.47682 33859 ft 434 kts 219°
2026-04-12 08:48 45.36424 134.43475 33867 ft 434 kts 219°
2026-04-12 08:48 45.31141 134.39293 33877 ft 435 kts 218°
2026-04-12 08:49 45.25859 134.35120 33883 ft 434 kts 218°
2026-04-12 08:49 45.20592 134.30948 33889 ft 433 kts 219°
2026-04-12 08:50 45.15359 134.26807 33894 ft 433 kts 219°
2026-04-12 08:50 45.10086 134.22661 33895 ft 433 kts 218°
2026-04-12 08:51 45.04813 134.18526 33897 ft 433 kts 218°
2026-04-12 08:51 44.99544 134.14394 33893 ft 433 kts 219°
2026-04-12 08:52 44.94281 134.10273 33896 ft 432 kts 219°
2026-04-12 08:52 44.89021 134.06165 33895 ft 432 kts 219°
2026-04-12 08:53 44.83755 134.02066 33899 ft 432 kts 219°
2026-04-12 08:53 44.79406 133.98613 33904 ft 430 kts 220°
2026-04-12 08:54 44.73419 133.93664 33690 ft 429 kts 220°
2026-04-12 08:54 44.70843 133.91526 33059 ft 428 kts 220°
2026-04-12 08:54 44.68280 133.89415 32544 ft 425 kts 220°
2026-04-12 08:54 44.66585 133.88031 32193 ft 423 kts 220°
2026-04-12 08:55 44.64044 133.85967 31661 ft 420 kts 220°
2026-04-12 08:55 44.60678 133.83240 30987 ft 415 kts 220°
2026-04-12 08:55 44.59031 133.81903 30651 ft 413 kts 220°
2026-04-12 08:55 44.56552 133.79892 30151 ft 409 kts 220°
2026-04-12 08:56 44.54101 133.77901 29656 ft 405 kts 220°
2026-04-12 08:56 44.51678 133.75931 29169 ft 401 kts 220°
2026-04-12 08:56 44.49273 133.73985 28680 ft 396 kts 220°
2026-04-12 08:56 44.46900 133.72071 28212 ft 391 kts 220°
2026-04-12 08:57 44.44552 133.70182 27750 ft 387 kts 220°
2026-04-12 08:57 44.42234 133.68314 27295 ft 383 kts 220°
2026-04-12 08:57 44.39940 133.66465 26850 ft 378 kts 220°
2026-04-12 08:57 44.37677 133.64639 26409 ft 373 kts 220°
2026-04-12 08:58 44.35440 133.62831 25980 ft 369 kts 220°
2026-04-12 08:58 44.33225 133.61043 25566 ft 366 kts 219°
2026-04-12 08:58 44.31060 133.59301 25158 ft 361 kts 219°
2026-04-12 08:58 44.28865 133.57540 24760 ft 357 kts 219°
2026-04-12 08:59 44.26728 133.55826 24361 ft 352 kts 219°
2026-04-12 08:59 44.24614 133.54134 23968 ft 348 kts 219°
2026-04-12 08:59 44.22525 133.52462 23575 ft 344 kts 219°
2026-04-12 08:59 44.20458 133.50812 23190 ft 340 kts 219°
2026-04-12 09:00 44.18438 133.49202 22804 ft 337 kts 219°
2026-04-12 09:00 44.16411 133.47587 22420 ft 333 kts 219°
2026-04-12 09:00 44.14409 133.45987 22040 ft 331 kts 219°
2026-04-12 09:00 44.12423 133.44401 21656 ft 327 kts 220°
2026-04-12 09:01 44.10459 133.42834 21273 ft 324 kts 219°
2026-04-12 09:01 44.08513 133.41285 20887 ft 320 kts 220°
2026-04-12 09:01 44.06584 133.39750 20509 ft 319 kts 220°
2026-04-12 09:01 44.04666 133.38225 20118 ft 316 kts 220°
2026-04-12 09:02 44.02758 133.36710 19735 ft 315 kts 220°
2026-04-12 09:02 44.00862 133.35201 19359 ft 313 kts 220°
2026-04-12 09:02 43.98978 133.33700 18993 ft 311 kts 220°
2026-04-12 09:02 43.97105 133.32209 18615 ft 310 kts 220°
2026-04-12 09:03 43.95238 133.30725 18240 ft 307 kts 221°
2026-04-12 09:03 43.93384 133.29253 17878 ft 306 kts 221°
2026-04-12 09:03 43.91542 133.27792 17513 ft 304 kts 221°
2026-04-12 09:03 43.89730 133.26308 17146 ft 298 kts 225°
2026-04-12 09:04 43.88174 133.24496 16758 ft 286 kts 236°
2026-04-12 09:04 43.86970 133.22376 16398 ft 276 kts 245°
2026-04-12 09:04 43.85919 133.20200 16053 ft 275 kts 244°
2026-04-12 09:04 43.84839 133.17985 15703 ft 284 kts 243°
2026-04-12 09:05 43.83712 133.15678 15336 ft 290 kts 243°
2026-04-12 09:05 43.82582 133.13380 15001 ft 286 kts 243°
2026-04-12 09:05 43.81466 133.11115 14660 ft 283 kts 243°
2026-04-12 09:05 43.80362 133.08873 14325 ft 281 kts 243°
2026-04-12 09:06 43.79265 133.06645 14000 ft 278 kts 243°
2026-04-12 09:06 43.78181 133.04441 13656 ft 276 kts 243°
2026-04-12 09:06 43.77107 133.02259 13326 ft 273 kts 243°
2026-04-12 09:06 43.76042 133.00100 12995 ft 270 kts 243°
2026-04-12 09:07 43.74986 132.97958 12661 ft 268 kts 242°
2026-04-12 09:07 43.73941 132.95836 12320 ft 264 kts 242°
2026-04-12 09:07 43.72932 132.93791 12024 ft 261 kts 242°
2026-04-12 09:07 43.71905 132.91706 11693 ft 263 kts 243°
2026-04-12 09:08 43.70880 132.89624 11376 ft 262 kts 242°
2026-04-12 09:08 43.69855 132.87536 11050 ft 263 kts 242°
2026-04-12 09:08 43.68827 132.85454 10714 ft 262 kts 240°
2026-04-12 09:08 43.67797 132.83377 10385 ft 262 kts 240°
2026-04-12 09:09 43.66765 132.81301 10154 ft 260 kts 239°
2026-04-12 09:09 43.65749 132.79211 10070 ft 263 kts 241°
2026-04-12 09:09 43.64809 132.77045 9957 ft 263 kts 243°
2026-04-12 09:09 43.63914 132.74843 9704 ft 265 kts 244°
2026-04-12 09:10 43.63019 132.72604 9247 ft 265 kts 244°
2026-04-12 09:10 43.62125 132.70375 8755 ft 263 kts 242°
2026-04-12 09:10 43.61234 132.68171 8230 ft 263 kts 242°
2026-04-12 09:10 43.60342 132.65984 7936 ft 262 kts 242°
2026-04-12 09:11 43.59445 132.63800 7511 ft 262 kts 242°
2026-04-12 09:11 43.58545 132.61608 7135 ft 262 kts 241°
2026-04-12 09:11 43.57648 132.59428 6728 ft 261 kts 241°
2026-04-12 09:11 43.56754 132.57256 6308 ft 262 kts 241°
2026-04-12 09:12 43.55874 132.55116 5826 ft 253 kts 241°
2026-04-12 09:12 43.55012 132.53021 5353 ft 250 kts 240°
2026-04-12 09:12 43.54154 132.50942 4919 ft 250 kts 240°
2026-04-12 09:12 43.53297 132.48864 4495 ft 249 kts 240°
2026-04-12 09:13 43.52451 132.46780 4080 ft 248 kts 240°
2026-04-12 09:13 43.51618 132.44688 3665 ft 249 kts 240°
2026-04-12 09:13 43.50790 132.42602 3430 ft 245 kts 240°
2026-04-12 09:13 43.49970 132.40544 3427 ft 246 kts 240°
2026-04-12 09:14 43.49157 132.38517 3410 ft 236 kts 240°
2026-04-12 09:14 43.48373 132.36570 3192 ft 229 kts 240°
2026-04-12 09:14 43.47630 132.34715 2937 ft 213 kts 240°
2026-04-12 09:14 43.46937 132.32982 2671 ft 206 kts 240°
2026-04-12 09:15 43.46269 132.31318 2417 ft 193 kts 240°
2026-04-12 09:15 43.45637 132.29740 2144 ft 184 kts 240°
2026-04-12 09:15 43.45041 132.28256 1921 ft 169 kts 239°
2026-04-12 09:15 43.44492 132.26889 1707 ft 155 kts 239°
2026-04-12 09:16 43.43985 132.25627 1499 ft 148 kts 239°
2026-04-12 09:16 43.43492 132.24400 1305 ft 146 kts 239°
2026-04-12 09:16 43.43002 132.23182 1108 ft 145 kts 239°
2026-04-12 09:16 43.42515 132.21969 920 ft 145 kts 240°
2026-04-12 09:17 43.42029 132.20760 726 ft 144 kts 240°
2026-04-12 09:17 43.41542 132.19553 533 ft 144 kts 239°
2026-04-12 09:17 43.41056 132.18350 326 ft 143 kts 239°
2026-04-12 09:17 43.40571 132.17151 119 ft 144 kts 239°
2026-04-12 09:18 43.40103 132.15988 31 ft 126 kts 241°
2026-04-12 09:18 43.39782 132.15184 34 ft 70 kts 242°
2026-04-12 09:18 43.39588 132.14700 33 ft 54 kts 240°
2026-04-12 09:18 43.39450 132.14362 34 ft 37 kts 241°
2026-04-12 09:19 43.39363 132.14171 33 ft 13 kts 210°
2026-04-12 09:19 43.39290 132.14215 34 ft 12 kts 146°
2026-04-12 09:19 43.39219 132.14270 33 ft 12 kts 149°
2026-04-12 09:20 43.39250 132.14465 32 ft 16 kts 60°
2026-04-12 09:20 43.39315 132.14626 32 ft 21 kts 62°
2026-04-12 09:20 43.39447 132.14956 31 ft 19 kts 61°
2026-04-12 09:21 43.39509 132.15108 32 ft 18 kts 61°
2026-04-12 09:21 43.39566 132.15249 33 ft 17 kts 61°
2026-04-12 09:21 43.39620 132.15384 32 ft 16 kts 61°
2026-04-12 09:21 43.39671 132.15510 31 ft 15 kts 61°
2026-04-12 09:22 43.39719 132.15628 33 ft 14 kts 61°
2026-04-12 09:22 43.39734 132.15711 33 ft 6 kts 108°
2026-04-12 09:22 43.39684 132.15761 33 ft 15 kts 151°
2026-04-12 09:22 43.39645 132.15865 33 ft 14 kts 60°
2026-04-12 09:23 43.39689 132.15974 33 ft 13 kts 61°
2026-04-12 09:23 43.39730 132.16074 33 ft 11 kts 61°
2026-04-12 09:23 43.39766 132.16164 33 ft 10 kts 56°
2026-04-12 09:23 43.39824 132.16163 33 ft 9 kts 345°
2026-04-12 09:24 43.39869 132.16204 33 ft 8 kts 60°
2026-04-12 09:24 43.39895 132.16267 33 ft 7 kts 60°
2026-04-12 09:24 43.39917 132.16318 33 ft 5 kts 60°
2026-04-12 09:24 43.39916 132.16375 33 ft 8 kts 128°
2026-04-12 09:25 43.39876 132.16407 33 ft 4 kts 152°
2026-04-12 09:25 43.39872 132.16410 33 ft 0 kts 152°